Voltar ao catálogo

STARLINK-3575

AtivoComunicaçõesVLEO
NORAD 51878·PAYLOAD·🇺🇸 United States

Lançado Mar 3, 2022 de Cape Canaveral Space Force Station

Loading…

Próximas Passagens (próximas 24 horas)

TLE

AtualizadoSource: CelesTrak SupGP

Época: Sep 15, 2026, 01:49 UTC

1 51878C 22022AC  26258.07618056 -.00025116  00000+0 -71853-3 0  2584
2 51878  53.1574 229.6292 0001287  90.6324 204.9351 15.35413136    17

Acompanhe STARLINK-3575 em tempo real com AllMySat

Download on the App Store